Regional Weather Roundup
Issued by NWS Albany, NY

Home | Current Version | Previous Version | Graphics & Text | Print | Product List | Glossary Off
Versions: 1 2 3 4 5 6 7 8 9 10 11 12 13 14 15 16 17 18 19 20 21 22 23 24 25 26 27 28 29 30 31 32 33 34 35 36 37 38 39 40 41 42 43 44 45 46 47 48 49 50

000
ASUS41 KALY 181410
RWRALY

NEW YORK STATE HOURLY WEATHER ROUNDUP
NATIONAL WEATHER SERVICE ALBANY NY
900 AM EST THU DEC 18 2014

NOTE: "FAIR" INDICATES FEW OR NO CLOUDS BELOW 12,000 FEET WITH NO
SIGNIFICANT WEATHER AND/OR NO OBSTRUCTIONS TO VISIBILITY.

NYZ032-033-038>043-046>054-057>066-NYZ062>081-181500-
EAST


CITY           SKY/WX    TMP DP  RH WIND       PRES   REMARKS
ALBANY         CLOUDY    36  26  67 W17G30    29.92R WCI  26
GLENS FALLS    CLOUDY    37  27  67 W7        29.85R WCI  32
POUGHKEEPSIE   MOSUNNY   38  23  55 W14       29.93S WCI  30
NEWBURGH       PTSUNNY   36  25  64 W14G25    29.95R WCI  27
MONTGOMERY     CLOUDY    37  22  54 W13G23    29.95R WCI  29
WHITE PLAINS   MOSUNNY   36  23  59 NW18G30   29.93R WCI  26
ISLIP          MOSUNNY   40  23  50 NW21G28   29.92R WCI  30
NEW YORK CITY  MOSUNNY   39  24  55 NW22G29   29.98R WCI  29
CENTRAL PARK   CLOUDY    39  21  48 NW8G17    30.00R WCI  33
$$

NYZ005>009-017-018-044>046-055-056-181500-
CENTRAL


CITY           SKY/WX    TMP DP  RH WIND       PRES   REMARKS
FULTON         CLOUDY    33  28  81 W16G22    30.01R WCI  23
SYRACUSE       CLOUDY    32  28  85 W16       30.02R WCI  21
ROME           SNOW      30  29  96 W15       29.99R VSB 1/2 WCI  19
ELMIRA         CLOUDY    32  24  72 NW10G22   30.05R WCI  24
BINGHAMTON     CLOUDY    28  23  81 NW10G20   29.97R WCI  19
MONTICELLO     CLOUDY    30  23  74 W20G35    29.93S WCI  18
$$

NYZ026>034-041>043-181500-
NORTH


CITY           SKY/WX    TMP DP  RH WIND       PRES   REMARKS
WATERTOWN      CLOUDY    33  25  72 W9        29.99R WCI  25
FORT DRUM      NOT AVBL
MASSENA        LGT SNOW  31  28  89 W13G25    29.93R FOG     WCI  21
SARANAC LAKE   CLOUDY    29  32 100 W12G18    29.81R WCI  19
PLATTSBURGH    CLOUDY    34  33  96 CALM      29.84R
$$

NYZ001>004-010>016-019>021-181500-
WEST


CITY           SKY/WX    TMP DP  RH WIND       PRES   REMARKS
NIAGARA FALLS  CLOUDY    31  28  89 W9        30.08S WCI  23
BUFFALO        CLOUDY    31  26  82 W10       30.08S WCI  22
DUNKIRK        CLOUDY    32  26  78 W10G18    30.12S WCI  24
JAMESTOWN      CLOUDY    27  23  86 NW13      30.07S WCI  16
WELLSVILLE     CLOUDY    27  22  81 NW16G25   30.02S WCI  15
ROCHESTER      CLOUDY    32  28  85 W14       30.06R WCI  22
PENN YAN       CLOUDY    32  24  72 W14G22    30.04R WCI  22
$$

             KEY
       WCI = WIND CHILL INDEX
       VSB = VISIBILITY
       HX  = HEAT INDEX
$$



USA.gov is the U.S. government's official web portal to all federal, state and local government web resources and services.